Location: Croisilles
(50.1998°N, 2.8793°E)
Time: 20:11:53
(UTC+00:00)

NOSS 3-4 (C) - Pass Details

Date: 21 January 2021
Orbit: 878 x 1335 km, 63.4° (Epoch: 16 February)

Event Time Altitude Azimuth Distance (km) Brightness Sun altitude
Rises 17:08:22 0° 247° (WSW) 3,491 9.2 -7.2°
Reaches altitude 10° 17:10:54 10° 253° (WSW) 2,580 7.5 -7.6°
Maximum altitude 17:16:39 47° 327° (NNW) 1,246 4.2 -8.4°
Drops below altitude 10° 17:22:55 10° 40° (NE) 2,817 5.4 -9.4°
Enters shadow 17:23:38 - 42° (NE) 3,068 5.6 -9.5°
